| time (UTC) | temp F | wind direction | speed MPH | gust MPH | rain 1hr in | rain 24hr in | rain mn in | humidity % | barometer mb |
| 20260901170055 | 65 | 307 | 0.0 | 0.0 | 0.00 | 0.00 | 0.00 | 66 | 1016.0 |
| 20260901164525 | 65 | 282 | 0.0 | 0.0 | 0.00 | 0.00 | 0.00 | 66 | 1016.0 |
| 20260901163034 | 65 | 194 | 0.0 | 0.0 | 0.00 | 0.00 | 0.00 | 65 | 1015.9 |
| 20260901161520 | 64 | 290 | 0.0 | 0.0 | 0.00 | 0.00 | 0.00 | 65 | 1015.9 |
| 20260901160017 | 64 | 181 | 0.0 | 0.0 | 0.00 | 0.00 | 0.00 | 66 | 1015.9 |
| 20260901154516 | 63 | 221 | 0.0 | 0.0 | 0.00 | 0.00 | 0.00 | 67 | 1015.7 |
| 20260901153013 | 63 | 250 | 0.0 | 0.0 | 0.00 | 0.00 | 0.00 | 69 | 1015.6 |
| 20260901151511 | 62 | 225 | 0.0 | 0.0 | 0.00 | 0.00 | 0.00 | 70 | 1015.4 |
| 20260901150006 | 61 | 190 | 0.0 | 0.0 | 0.00 | 0.00 | 0.00 | 71 | 1015.5 |
| 20260901144503 | 61 | 211 | 0.0 | 0.0 | 0.00 | 0.00 | 0.00 | 73 | 1015.3 |
| 20260901143100 | 60 | 211 | 0.0 | 0.0 | 0.00 | 0.00 | 0.00 | 74 | 1015.1 |
| 20260901141557 | 60 | 211 | 0.0 | 0.0 | 0.00 | 0.00 | 0.00 | 74 | 1015.0 |
| 20260901140105 | 60 | 211 | 0.0 | 0.0 | 0.00 | 0.00 | 0.00 | 74 | 1014.7 |
| 20260901134554 | 60 | 219 | 0.0 | 0.0 | 0.00 | 0.00 | 0.00 | 74 | 1014.6 |
| 20260901133104 | 60 | 221 | 0.0 | 0.0 | 0.00 | 0.00 | 0.00 | 75 | 1014.4 |
| 20260901131553 | 60 | 257 | 0.0 | 0.0 | 0.00 | 0.00 | 0.00 | 74 | 1014.4 |
| 20260901130050 | 60 | 239 | 0.0 | 0.0 | 0.00 | 0.00 | 0.00 | 75 | 1014.3 |
| 20260901124550 | 60 | 213 | 0.0 | 0.0 | 0.00 | 0.00 | 0.00 | 76 | 1014.2 |
| 20260901123049 | 60 | 214 | 0.0 | 0.0 | 0.00 | 0.00 | 0.00 | 77 | 1014.2 |
| 20260901121600 | 60 | 215 | 0.0 | 0.0 | 0.00 | 0.00 | 0.00 | 77 | 1014.2 |
| 20260901120045 | 59 | 215 | 0.0 | 0.0 | 0.00 | 0.00 | 0.00 | 78 | 1014.2 |
| 20260901114544 | 59 | 214 | 0.0 | 0.0 | 0.00 | 0.00 | 0.00 | 79 | 1014.2 |
| 20260901113053 | 59 | 216 | 0.0 | 0.0 | 0.00 | 0.00 | 0.00 | 80 | 1014.4 |
| 20260901111543 | 58 | 216 | 0.0 | 0.0 | 0.00 | 0.00 | 0.00 | 82 | 1014.4 |
| 20260901110038 | 57 | 238 | 0.0 | 0.0 | 0.00 | 0.00 | 0.00 | 85 | 1014.5 |
| 20260901104542 | 57 | 238 | 0.0 | 0.0 | 0.00 | 0.00 | 0.00 | 87 | 1014.5 |
| 20260901103033 | 57 | 238 | 0.0 | 0.0 | 0.00 | 0.00 | 0.00 | 88 | 1014.4 |
| 20260901101530 | 56 | 238 | 0.0 | 0.0 | 0.00 | 0.00 | 0.00 | 89 | 1014.3 |
| 20260901100029 | 56 | 238 | 0.0 | 0.0 | 0.00 | 0.00 | 0.00 | 89 | 1014.2 |
| 20260901094532 | 56 | 238 | 0.0 | 0.0 | 0.00 | 0.00 | 0.00 | 90 | 1014.2 |
| 20260901093024 | 55 | 238 | 0.0 | 0.0 | 0.00 | 0.00 | 0.00 | 90 | 1014.2 |
| 20260901091521 | 54 | 238 | 0.0 | 0.0 | 0.00 | 0.00 | 0.00 | 91 | 1014.2 |
| 20260901090018 | 54 | 238 | 0.0 | 0.0 | 0.00 | 0.00 | 0.00 | 91 | 1014.2 |
| 20260901084516 | 53 | 238 | 0.0 | 0.0 | 0.00 | 0.00 | 0.00 | 91 | 1014.3 |
| 20260901083017 | 52 | 238 | 0.0 | 0.0 | 0.00 | 0.00 | 0.00 | 91 | 1014.2 |
| 20260901081517 | 52 | 238 | 0.0 | 0.0 | 0.00 | 0.00 | 0.00 | 91 | 1014.2 |
| 20260901080018 | 52 | 238 | 0.0 | 0.0 | 0.00 | 0.00 | 0.00 | 90 | 1014.2 |
| 20260901074513 | 53 | 238 | 0.0 | 0.0 | 0.00 | 0.00 | 0.00 | 90 | 1014.2 |
| 20260901073010 | 53 | 238 | 0.0 | 0.0 | 0.00 | 0.00 | 0.00 | 90 | 1014.3 |
| 20260901071509 | 53 | 238 | 0.0 | 0.0 | 0.00 | 0.00 | 0.00 | 90 | 1014.4 |
| 20260901070008 | 53 | 238 | 0.0 | 0.0 | 0.00 | 0.00 | 0.00 | 90 | 1014.3 |
| 20260901064508 | 53 | 238 | 0.0 | 0.0 | 0.00 | 0.00 | 0.00 | 90 | 1014.4 |
| 20260901063006 | 53 | 238 | 0.0 | 0.0 | 0.00 | 0.00 | 0.00 | 89 | 1014.5 |
| 20260901061509 | 53 | 238 | 0.0 | 0.0 | 0.00 | 0.00 | 0.00 | 88 | 1014.4 |
| 20260901060002 | 54 | 238 | 0.0 | 0.0 | 0.00 | 0.00 | 0.00 | 88 | 1014.5 |
| 20260901054503 | 54 | 238 | 0.0 | 0.0 | 0.00 | 0.00 | 0.00 | 87 | 1014.6 |
| 20260901053002 | 55 | 238 | 0.0 | 0.0 | 0.00 | 0.00 | 0.00 | 87 | 1014.5 |
| 20260901051501 | 55 | 238 | 0.0 | 0.0 | 0.00 | 0.00 | 0.00 | 86 | 1014.5 |
| 20260901050103 | 56 | 238 | 0.0 | 0.0 | 0.00 | 0.00 | 0.00 | 84 | 1014.3 |
| 20260901044603 | 57 | 238 | 0.0 | 0.0 | 0.00 | 0.00 | 0.00 | 83 | 1014.2 |
| 20260901043100 | 57 | 238 | 0.0 | 0.0 | 0.00 | 0.00 | 0.00 | 82 | 1014.1 |
| 20260901041559 | 58 | 238 | 0.0 | 1.0 | 0.00 | 0.00 | 0.00 | 81 | 1013.9 |
| 20260901040059 | 59 | 238 | 0.0 | 0.0 | 0.00 | 0.00 | 0.00 | 80 | 1013.9 |
| 20260901034607 | 59 | 238 | 0.0 | 2.0 | 0.00 | 0.00 | 0.00 | 79 | 1013.7 |
| 20260901033112 | 60 | 271 | 0.0 | 3.0 | 0.00 | 0.00 | 0.00 | 78 | 1013.4 |
| 20260901031601 | 60 | 288 | 1.0 | 7.0 | 0.00 | 0.00 | 0.00 | 77 | 1013.3 |
| 20260901030057 | 61 | 245 | 2.0 | 8.0 | 0.00 | 0.00 | 0.00 | 77 | 1013.0 |
| 20260901024601 | 62 | 290 | 1.0 | 8.0 | 0.00 | 0.00 | 0.00 | 75 | 1012.9 |
| 20260901023057 | 62 | 226 | 0.0 | 9.0 | 0.00 | 0.00 | 0.00 | 74 | 1012.9 |
| 20260901021556 | 63 | 271 | 2.0 | 8.0 | 0.00 | 0.00 | 0.00 | 72 | 1012.7 |
| 20260901020055 | 64 | 263 | 0.0 | 6.0 | 0.00 | 0.00 | 0.00 | 70 | 1012.6 |
| 20260901014606 | 66 | 272 | 1.0 | 7.0 | 0.00 | 0.00 | 0.00 | 69 | 1012.6 |
| 20260901013055 | 67 | 238 | 3.0 | 8.0 | 0.00 | 0.00 | 0.00 | 66 | 1012.5 |
| 20260901011554 | 68 | 230 | 2.0 | 8.0 | 0.00 | 0.00 | 0.00 | 65 | 1012.5 |
| 20260901010054 | 70 | 265 | 0.0 | 10.0 | 0.00 | 0.00 | 0.00 | 62 | 1012.5 |
| 20260901004609 | 70 | 230 | 1.0 | 9.0 | 0.00 | 0.00 | 0.00 | 62 | 1012.3 |
| 20260901003055 | 70 | 295 | 1.0 | 6.0 | 0.00 | 0.00 | 0.00 | 62 | 1012.2 |
| 20260901001558 | 70 | 279 | 3.0 | 10.0 | 0.00 | 0.00 | 0.00 | 61 | 1012.2 |
| 20260831234551 | 71 | 346 | 1.0 | 8.0 | 0.00 | 0.00 | 0.00 | 61 | 1012.3 |
| 20260831233051 | 71 | 79 | 0.0 | 12.0 | 0.00 | 0.00 | 0.00 | 60 | 1012.4 |
| 20260831231553 | 72 | 26 | 2.0 | 9.0 | 0.00 | 0.00 | 0.00 | 60 | 1012.3 |
| 20260831230048 | 73 | 280 | 3.0 | 13.0 | 0.00 | 0.00 | 0.00 | 59 | 1012.4 |
| 20260831224546 | 74 | 279 | 3.0 | 9.0 | 0.00 | 0.00 | 0.00 | 58 | 1012.5 |
| 20260831223044 | 73 | 69 | 1.0 | 6.0 | 0.00 | 0.00 | 0.00 | 60 | 1012.6 |
| 20260831221542 | 73 | 271 | 3.0 | 8.0 | 0.00 | 0.00 | 0.00 | 59 | 1012.8 |
| 20260831220041 | 73 | 320 | 1.0 | 10.0 | 0.00 | 0.00 | 0.00 | 59 | 1013.0 |
| 20260831214541 | 73 | 292 | 1.0 | 9.0 | 0.00 | 0.00 | 0.00 | 59 | 1013.2 |
| 20260831213035 | 72 | 333 | 1.0 | 9.0 | 0.00 | 0.00 | 0.00 | 60 | 1013.4 |
| 20260831211533 | 72 | 215 | 2.0 | 10.0 | 0.00 | 0.00 | 0.00 | 61 | 1013.6 |
| 20260831210030 | 72 | 304 | 2.0 | 9.0 | 0.00 | 0.00 | 0.00 | 62 | 1013.8 |
| 20260831204528 | 71 | 338 | 2.0 | 11.0 | 0.00 | 0.00 | 0.00 | 63 | 1013.9 |
| 20260831203025 | 71 | 250 | 3.0 | 11.0 | 0.00 | 0.00 | 0.00 | 63 | 1014.0 |
| 20260831201521 | 70 | 252 | 0.0 | 9.0 | 0.00 | 0.00 | 0.00 | 65 | 1014.1 |
| 20260831200016 | 68 | 195 | 3.0 | 9.0 | 0.00 | 0.00 | 0.00 | 69 | 1014.0 |
| 20260831194515 | 68 | 283 | 0.0 | 9.0 | 0.00 | 0.00 | 0.00 | 71 | 1014.1 |
| 20260831193021 | 67 | 194 | 1.0 | 7.0 | 0.00 | 0.00 | 0.00 | 70 | 1014.4 |
| 20260831191510 | 67 | 342 | 0.0 | 2.0 | 0.00 | 0.00 | 0.00 | 70 | 1014.4 |
| 20260831190018 | 67 | 34 | 0.0 | 2.0 | 0.00 | 0.00 | 0.00 | 69 | 1014.4 |
| 20260831184506 | 67 | 301 | 0.0 | 3.0 | 0.00 | 0.00 | 0.00 | 71 | 1014.6 |
| 20260831183004 | 66 | 242 | 0.0 | 4.0 | 0.00 | 0.00 | 0.00 | 71 | 1014.7 |
| 20260831181603 | 65 | 295 | 0.0 | 2.0 | 0.00 | 0.00 | 0.00 | 73 | 1014.6 |
| 20260831180057 | 64 | 295 | 0.0 | 2.0 | 0.00 | 0.00 | 0.00 | 74 | 1014.7 |
| 20260831174608 | 64 | 282 | 0.0 | 5.0 | 0.00 | 0.00 | 0.00 | 75 | 1014.7 |
| 20260831173051 | 63 | 215 | 0.0 | 3.0 | 0.00 | 0.00 | 0.00 | 76 | 1014.8 |
| 20260831171547 | 63 | 257 | 0.0 | 2.0 | 0.00 | 0.00 | 0.00 | 75 | 1014.7 |